When you browse on this site, cookies collect data to enhance your experience and personalize the content and advertising you see.
Visit our Privacy Policy to learn more. By continuing to use the site, you agree to this use of cookies and data.
  • In Germany
  • List of Countries
  • For 7 days
  • Water Temperature
  • Satellite Maps
  • Weather Map
  • Weather Widgets
  • user-avatar
    Login

    Hourly Weather Ara-Kiret

    Today, 20 November, Tuesday

    Time Temperature Precipitation Wind Pressure Humidity
    00:00 -16°C° 0 mm 1 mps 692 mmHg 83%
    01:00 -19°C° 0 mm 2 mps 692 mmHg 83%
    02:00 -19°C° 0 mm 2 mps 692 mmHg 83%
    03:00 -19°C° 0 mm 2 mps 692 mmHg 83%
    04:00 -19°C° 0 mm 2 mps 692 mmHg 82%
    05:00 -19°C° 0 mm 2 mps 691 mmHg 81%
    06:00 -19°C° 0 mm 2 mps 691 mmHg 80%
    07:00 -18°C° 0 mm 2 mps 691 mmHg 80%
    08:00 -17°C° 0 mm 2 mps 691 mmHg 73%
    09:00 -16°C° 0 mm 2 mps 691 mmHg 66%
    10:00 -15°C° 0 mm 3 mps 691 mmHg 59%
    11:00 -13°C° 0 mm 2 mps 691 mmHg 57%
    12:00 -13°C° 0 mm 2 mps 690 mmHg 55%
    13:00 -12°C° 0 mm 2 mps 690 mmHg 54%
    14:00 -13°C° 0 mm 2 mps 690 mmHg 60%
    15:00 -14°C° 0 mm 2 mps 690 mmHg 66%
    16:00 -15°C° 0 mm 2 mps 690 mmHg 72%
    17:00 -15°C° 0 mm 2 mps 690 mmHg 74%
    18:00 -15°C° 0 mm 2 mps 690 mmHg 75%
    19:00 -16°C° 0 mm 2 mps 690 mmHg 77%
    20:00 -16°C° 0 mm 2 mps 690 mmHg 78%
    21:00 -16°C° 0 mm 2 mps 690 mmHg 78%
    22:00 -16°C° 0 mm 2 mps 690 mmHg 79%
    23:00 -16°C° 0 mm 2 mps 690 mmHg 79%

    Tomorrow, 21 November, Wednesday

    Time Temperature Precipitation Wind Pressure Humidity
    00:00 -17°C° 0 mm 2 mps 690 mmHg 80%
    01:00 -17°C° 0 mm 2 mps 690 mmHg 80%
    02:00 -15°C° 0 mm 1 mps 690 mmHg 81%
    03:00 -15°C° 0 mm 1 mps 690 mmHg 81%
    04:00 -15°C° 0 mm 1 mps 690 mmHg 81%
    05:00 -16°C° 0 mm 1 mps 690 mmHg 81%
    06:00 -16°C° 0 mm 1 mps 690 mmHg 81%
    07:00 -16°C° 0 mm 1 mps 690 mmHg 81%
    08:00 -14°C° 0 mm 1 mps 690 mmHg 75%
    09:00 -13°C° 0 mm 1 mps 690 mmHg 68%
    10:00 -12°C° 0 mm 1 mps 691 mmHg 62%
    11:00 -11°C° 0 mm 1 mps 691 mmHg 59%
    12:00 -12°C° 0 mm 2 mps 691 mmHg 56%
    13:00 -10°C° 0 mm 2 mps 690 mmHg 53%
    14:00 -10°C° 0 mm 1 mps 690 mmHg 59%
    15:00 -11°C° 0 mm 1 mps 690 mmHg 65%
    16:00 -12°C° 0 mm 1 mps 690 mmHg 70%
    17:00 -13°C° 0 mm 1 mps 690 mmHg 72%
    18:00 -13°C° 0 mm 1 mps 690 mmHg 74%
    19:00 -14°C° 0 mm 1 mps 691 mmHg 76%
    20:00 -14°C° 0 mm 1 mps 691 mmHg 76%
    21:00 -14°C° 0 mm 1 mps 691 mmHg 76%
    22:00 -14°C° 0 mm 1 mps 691 mmHg 76%
    23:00 -14°C° 0 mm 1 mps 690 mmHg 76%

    Day after tomorrow, 22 November, Thursday

    Time Temperature Precipitation Wind Pressure Humidity
    00:00 -14°C° 0 mm 1 mps 690 mmHg 76%
    01:00 -14°C° 0 mm 1 mps 690 mmHg 76%
    02:00 -14°C° 0 mm 1 mps 690 mmHg 76%
    03:00 -15°C° 0 mm 1 mps 690 mmHg 76%
    04:00 -15°C° 0 mm 1 mps 689 mmHg 75%
    05:00 -15°C° 0 mm 1 mps 689 mmHg 75%
    06:00 -15°C° 0 mm 1 mps 689 mmHg 75%
    07:00 -15°C° 0 mm 1 mps 689 mmHg 74%
    08:00 -13°C° 0 mm 1 mps 689 mmHg 68%
    09:00 -11°C° 0 mm 1 mps 689 mmHg 61%
    10:00 -10°C° 0 mm 1 mps 689 mmHg 55%
    11:00 -9°C° 0 mm 1 mps 689 mmHg 52%
    12:00 -8°C° 0 mm 1 mps 688 mmHg 49%
    13:00 -6°C° 0 mm 1 mps 688 mmHg 47%
    14:00 -8°C° 0 mm 1 mps 688 mmHg 53%
    15:00 -9°C° 0 mm 1 mps 687 mmHg 59%
    16:00 -10°C° 0 mm 1 mps 687 mmHg 65%
    17:00 -11°C° 0 mm 1 mps 687 mmHg 66%
    18:00 -11°C° 0 mm 1 mps 687 mmHg 67%
    19:00 -11°C° 0 mm 1 mps 687 mmHg 68%
    20:00 -11°C° 0 mm 1 mps 687 mmHg 69%
    21:00 -11°C° 0 mm 1 mps 687 mmHg 69%
    22:00 -12°C° 0 mm 1 mps 687 mmHg 70%
    23:00 -12°C° 0 mm 1 mps 687 mmHg 71%

    23 November, Friday

    Time Temperature Precipitation Wind Pressure Humidity
    00:00 -12°C° 0 mm 1 mps 686 mmHg 71%
    01:00 -12°C° 0 mm 1 mps 686 mmHg 72%
    02:00 -12°C° 0 mm 1 mps 686 mmHg 73%
    03:00 -12°C° 0 mm 1 mps 686 mmHg 74%
    04:00 -13°C° 0 mm 1 mps 686 mmHg 74%
    05:00 -13°C° 0 mm 1 mps 686 mmHg 75%
    06:00 -13°C° 0 mm 1 mps 686 mmHg 75%
    07:00 -13°C° 0 mm 1 mps 686 mmHg 75%
    08:00 -11°C° 0 mm 1 mps 686 mmHg 69%
    09:00 -10°C° 0 mm 1 mps 687 mmHg 63%
    10:00 -8°C° 0 mm 1 mps 687 mmHg 57%
    11:00 -7°C° 0 mm 1 mps 686 mmHg 54%
    12:00 -6°C° 0 mm 1 mps 686 mmHg 51%
    13:00 -4°C° 0 mm 1 mps 686 mmHg 48%
    14:00 -7°C° 0 mm 1 mps 686 mmHg 54%
    15:00 -8°C° 0 mm 1 mps 686 mmHg 60%
    16:00 -9°C° 0 mm 1 mps 686 mmHg 66%
    17:00 -10°C° 0 mm 1 mps 686 mmHg 68%
    18:00 -10°C° 0 mm 1 mps 686 mmHg 69%
    19:00 -10°C° 0 mm 1 mps 686 mmHg 70%
    20:00 -10°C° 0 mm 1 mps 686 mmHg 71%
    21:00 -11°C° 0 mm 1 mps 686 mmHg 71%
    22:00 -11°C° 0 mm 1 mps 687 mmHg 72%
    23:00 -11°C° 0 mm 1 mps 687 mmHg 73%

    24 November, Saturday

    Time Temperature Precipitation Wind Pressure Humidity
    00:00 -11°C° 0 mm 1 mps 687 mmHg 73%
    01:00 -11°C° 0 mm 1 mps 686 mmHg 73%
    02:00 -11°C° 0 mm 1 mps 686 mmHg 73%
    03:00 -11°C° 0 mm 1 mps 686 mmHg 73%
    04:00 -11°C° 0 mm 1 mps 686 mmHg 73%
    05:00 -11°C° 0 mm 1 mps 687 mmHg 73%
    06:00 -11°C° 0 mm 1 mps 687 mmHg 72%
    07:00 -11°C° 0 mm 1 mps 687 mmHg 72%
    08:00 -10°C° 0 mm 1 mps 687 mmHg 67%
    09:00 -8°C° 0 mm 1 mps 687 mmHg 61%
    10:00 -7°C° 0 mm 1 mps 688 mmHg 56%
    11:00 -4°C° 0 mm 1 mps 687 mmHg 54%
    12:00 -3°C° 0 mm 1 mps 687 mmHg 51%
    13:00 -2°C° 0 mm 1 mps 686 mmHg 49%
    14:00 -4°C° 0 mm 1 mps 686 mmHg 54%
    15:00 -6°C° 0 mm 1 mps 686 mmHg 60%
    16:00 -7°C° 0 mm 1 mps 685 mmHg 66%
    17:00 -8°C° 0 mm 1 mps 685 mmHg 67%
    18:00 -8°C° 0 mm 1 mps 685 mmHg 69%
    19:00 -8°C° 0 mm 1 mps 685 mmHg 71%
    20:00 -8°C° 0 mm 1 mps 685 mmHg 72%
    21:00 -10°C° 0 mm 2 mps 684 mmHg 73%
    22:00 -10°C° 0 mm 2 mps 684 mmHg 74%
    23:00 -10°C° 0 mm 2 mps 683 mmHg 75%

    25 November, Sunday

    Time Temperature Precipitation Wind Pressure Humidity
    00:00 -10°C° 0 mm 2 mps 682 mmHg 75%
    01:00 -10°C° 0 mm 2 mps 681 mmHg 75%
    02:00 -9°C° 0 mm 2 mps 680 mmHg 74%
    03:00 -9°C° 0 mm 2 mps 679 mmHg 73%
    04:00 -9°C° 0 mm 2 mps 678 mmHg 72%
    05:00 -8°C° 0 mm 2 mps 678 mmHg 71%
    06:00 -8°C° 0 mm 2 mps 677 mmHg 69%
    07:00 -7°C° 0 mm 2 mps 676 mmHg 68%
    08:00 -6°C° 0 mm 2 mps 675 mmHg 63%
    09:00 -4°C° 0 mm 2 mps 675 mmHg 59%
    10:00 -3°C° 0 mm 2 mps 675 mmHg 54%
    11:00 -2°C° 0.1 mm 3 mps 674 mmHg 56%
    12:00 -3°C° 0.1 mm 4 mps 674 mmHg 58%
    13:00 -2°C° 0.1 mm 4 mps 674 mmHg 59%
    14:00 -3°C° 0.1 mm 4 mps 674 mmHg 59%
    15:00 -3°C° 0.1 mm 4 mps 675 mmHg 60%
    16:00 -3°C° 0.1 mm 4 mps 676 mmHg 60%
    17:00 -5°C° 0.5 mm 4 mps 677 mmHg 68%
    18:00 -7°C° 0.5 mm 5 mps 678 mmHg 77%
    19:00 -10°C° 0.5 mm 5 mps 679 mmHg 86%
    20:00 -10°C° 0.4 mm 4 mps 680 mmHg 85%
    21:00 -10°C° 0.4 mm 3 mps 681 mmHg 84%
    22:00 -9°C° 0.4 mm 2 mps 682 mmHg 83%
    23:00 -9°C° 0.2 mm 2 mps 683 mmHg 80%
    Show more